Regional Weather Roundup
Issued by NWS

Home | Current Version | Previous Version | Text Only | Print | Product List | Glossary Off
Versions: 1 2 3 4 5 6 7 8 9 10 11 12 13 14 15 16 17 18 19 20 21 22 23 24 25 26 27 28 29 30 31 32 33 34 35 36 37 38 39 40 41 42 43 44 45 46 47 48 49 50

000
ASUS45 KBOU 232207
RWRCO

WEATHER ROUNDUP FOR COLORADO
NATIONAL WEATHER SERVICE DENVER/BOULDER CO
400 PM MDT TUE AUG 23 2016

NOTE: "FAIR" INDICATES FEW OR NO CLOUDS BELOW 12000 FEET WITH NO
SIGNIFICANT WEATHER AND/OR OBSTRUCTIONS TO VISIBILITY.

COZ001>005-013-030-031-232300-
...NORTHWEST COLORADO...

CITY           SKY/WX    TMP DP  RH WIND       PRES   REMARKS
CRAIG          FAIR      80  29  15 SW7       30.13F
HAYDEN         FAIR      75  30  19 S6        30.17S
MEEKER         FAIR      77  38  24 VRB3      30.15F
MOUNT WERNER   NOT AVBL
STEAMBOAT SPGS FAIR      76  32  20 CALM      30.19F
WALDEN         FAIR      70  30  23 SW6       30.29S
$$

COZ006>008-011-232300-
...WEST CENTRAL VALLEYS...

CITY           SKY/WX    TMP DP  RH WIND       PRES   REMARKS
GRAND JUNCTION FAIR      78  48  34 W8        30.10F
MONTROSE       CLOUDY    66  50  56 S10       30.22R
EAGLE          MOSUNNY   75  36  23 W18       30.20S
RIFLE          FAIR      79  45  29 E12       30.12F
DELTA          PTSUNNY   78  46  31 SE16      30.15S
NUCLA          TSTM      63  46  55 SE14      30.27R
$$

COZ017>023-064>068-232300-
...SOUTHWEST COLORADO...

CITY           SKY/WX    TMP DP  RH WIND       PRES   REMARKS
DURANGO        RAIN      56  53  90 W8        30.30R FOG
CORTEZ         TSTM      56  53  90 S8        30.28R FOG
PAGOSA SPRINGS TSTM      58  48  70 N5        30.33R
TELLURIDE      CLOUDY    48  46  93 CALM      30.44F
WOLF CREEK PAS CLOUDY    37  37 100 NE12      30.59F
$$

COZ009-010-012-014-032>034-037-058>063-232300-
...CENTRAL COLORADO...

CITY           SKY/WX    TMP DP  RH WIND       PRES   REMARKS
ASPEN          PTSUNNY   73  35  25 N10       30.24F
BUENA VISTA    CLOUDY    62  41  45 E10       30.31R
COPPER MTN     CLOUDY    55  27  33 NW3       30.56S
BERTHOUD PASS  CLOUDY    45  32  61 NE3       30.60S
COTTONWOOD PAS CLOUDY    57  37  47 SE8       30.44R THUNDER
GUNNISON       FAIR      63  45  51 SW13G24   30.30R
KREMMLING      FAIR      73  21  14 CALM      30.24S
LEADVILLE      PTSUNNY   56  33  42 E13G23    30.39R
MONARCH PASS   CLOUDY    45  34  65 N7        30.64S THUNDER
SALIDA         CLOUDY    62  49  62 SE8       30.35R
SUNLIGHT       CLOUDY    54  37  54 NE7       30.51F
WILKERSON PASS RAIN      43  36  75 E10       30.56
$$

COZ069>075-232300-
...SAN LUIS VALLEY/SANGRE DE CRISTO MOUNTAINS...

CITY           SKY/WX    TMP DP  RH WIND       PRES   REMARKS
ALAMOSA        FAIR      67  43  41 SW10      30.27S
LA VETA PASS   NOT AVBL
SAGUACHE       FAIR      66  41  39 W12G20    30.27S
$$

COZ035-036-038>040-232300-
...NORTHERN COLORADO FRONT RANGE...

CITY           SKY/WX    TMP DP  RH WIND       PRES   REMARKS
DENVER INTL AP PTSUNNY   80  36  20 SW14      30.09R
DMNS CITY PARK   N/A     77  38  24 SW15G26   30.10R
AURORA         PTSUNNY   79  37  22 SW14      30.11R
FRONT RANGE AP PTSUNNY   86  30  13 N8        30.10
ERIE MUNI ARPT CLOUDY    79  35  20 SW15G25   30.08R
BOULDER MUN AP FAIR      79  37  22 S13G18    30.06R
CENTENNIAL     CLOUDY    76  37  24 SW17      30.14R
BROOMFIELD     PTSUNNY   77  32  19 SW23G30   30.12R
FORT COLLINS   FAIR      82  36  18 NW6       30.02R
LONGMONT       FAIR      84  37  19 CALM      30.06R
$$

COZ041-046-047-076>085-087-088-232300-
...PIKES PEAK/PALMER DIVIDE AND SOUTHERN FOOTHILLS...

CITY           SKY/WX    TMP DP  RH WIND       PRES   REMARKS
COLO. SPRINGS  CLOUDY    77  33  20 NE14      30.15F
A. F. ACADEMY  PTSUNNY   72  34  24 S23       30.19R
SCHRIEVER AFB  NOT AVBL
ELLICOTT       NOT AVBL
FALCON         CLOUDY    73  29  19 SW3G22    30.22R
FORT CARSON    DRIZZLE   73  41  31 NW13      30.10S
LIMON          FAIR      85  27  12 N13       30.07R
MONUMENT HILL  CLOUDY    70  32  24 N3        30.24R
TRINIDAD       FAIR      84  37  18 SE9       30.08S
$$

COZ042>045-048>051-090-091-232300-
...NORTHEAST COLORADO...

CITY           SKY/WX    TMP DP  RH WIND       PRES   REMARKS
GREELEY ARPT   FAIR      84  36  17 CALM      30.03R
AKRON          FAIR      87  26  11 N18G26    30.01R
BURLINGTON     FAIR      94  21   7 N13G23    29.97R
WRAY           NOT AVBL
STERLING       FAIR      88  28  11 NE17      29.96R
HOLYOKE        FAIR      95  34  11 N14G23    29.95R
FORT MORGAN    FAIR      91  23   8 N13G18    30.00S
$$

COZ086-089-092>099-232300-
...SOUTHEAST COLORADO...

CITY           SKY/WX    TMP DP  RH WIND       PRES   REMARKS
PUEBLO         PTSUNNY   87  39  18 SW16G35   30.01R
LA JUNTA       FAIR      95  34  11 NE8G18    29.96S
LAMAR          FAIR      96  37  12 SE6       29.90S
SPRINGFIELD      N/A     90  47  22 N3        29.97F
$$



USA.gov is the U.S. government's official web portal to all federal, state and local government web resources and services.